CZ-6A DEB, 61829

Orbit data source: Space-Track

CZ-6A DEB, 61829 is space debris in LEO originally from a launch on Tue, 06 Aug 2024 UTC launched from the Taiyaun Space Center, China (TSC). Debris objects in space refer to the collection of defunct objects orbiting the Earth. Examples of debris include non-operational satellites, rocket bodies, and fragments generated from explosions, collisions, or faulty payload assembly.

Loading next visibility...
Identifier
61829, 2024-140ACV
Orbit
LEO
Country
Flag of CNCN / PRC
Related business
Manufacturer
SAST
Mission
Spacecraft
Bus & Motor
Unknown
Mass
Unknown
Launch date (UTC)
2024-08-06 (2 years ago)
Launch vehicle
Unknown
Launch site
Taiyaun Space Center, China (TSC)
Object type
Payload
Rocket body
Debris
Shape & HBR
Unknown shape, 0.1 m
Radar Cross Section
Medium (>0.1 m² and <1 m²)

Expand to show TLE details & history
Last TLE update: 14 hours ago

TLE from 14 hours ago
0 CZ-6A DEB
1 61829U 24140ACV 26171.26639301  .00054748  00000-0  41998-2 0  9995
2 61829  89.2181 287.1638 0060814 103.0880 257.7151 15.00082619 92754
Epoch: 2026-06-20T06:23Z
TLE epoch observation values (Epoch: 2026-06-20T06:23:36.356Z)
Latitude
-0.00008°
Longitude
-77.22117°
Altitude
579.042 km
Speed
7.566 km/s
True Right ascension
19h 08m 39s
True Declination
0° 00' 00"
Sunlit
Object was in full shadow at epoch
Visualization orbit readout
Latitude
Unknown
Longitude
Unknown
Altitude
Unknown
Speed
Unknown
Apparent Right ascension
Unknown
Apparent Declination
Unknown
Sunlit
N/A
Visualization observer readout
Local Sidereal Time
07:13:19
Azimuth
Unknown
Elevation
Unknown
Doppler factor
Unknown
Orbital elements
Apogee altitude
605.692 km
Perigee altitude
521.263 km
Semi-major axis
6,941.614 km
Eccentricity
0.00608
Inclination
89.2181°
RAAN
287.1638°
Arg. of periapsis
103.088°
True anomaly
257.0353°
Mean anomaly
257.7151°
Eccentric anomaly
257.37509°
Mean motion
3.75277 °/min
Orbital period
95.93 mins
BSTAR
0.0041998
Loading maneuver chart data...
Computing Atmospheric mass density...
Loading historical data...
Loading historical data...
Loading historical data...
Loading historical data...
Loading historical data...
Loading historical data...
Loading historical data...

Documentation

Showing up to 5 results
|